Time_in_sec,gx,gy,gz
1323443779.85258436,0.01913130,0.00815316,-0.99978374
1323443779.90531039,0.01894739,0.00807867,-0.99978784
1323443779.95252991,0.01908303,0.00807476,-0.99978530
1323443780.00549650,0.01881172,0.00699442,-0.99979858
1323443780.05348849,0.01901574,0.00707343,-0.99979416
1323443780.10456085,0.01909574,0.00691819,-0.99979372
1323443780.15757298,0.01936175,0.00694545,-0.99978842
1323443780.20455027,0.01916315,0.00694153,-0.99979227
1323443780.25367355,0.01935249,0.00716238,-0.99978707
1323443780.30455899,0.01903447,0.00698558,-0.99979442
1323443780.35257554,0.01888845,0.00700653,-0.99979705
1323443780.40551281,0.01876757,0.00696394,-0.99979962
1323443780.45252609,0.01855649,0.00695024,-0.99980366
1323443780.50457716,0.01820083,0.00623940,-0.99981488
1323443780.55352163,0.01828766,0.00616366,-0.99981377
1323443780.60456753,0.01830533,0.00618922,-0.99981329
1323443780.65263915,0.01817118,0.00612257,-0.99981614
1323443780.70499682,0.01819394,0.00639186,-0.99981404
1323443780.75365949,0.01803734,0.00591081,-0.99981984
1323443780.80552649,0.01801326,0.00608153,-0.99981925
1323443780.85354567,0.01791361,0.00605329,-0.99982121
1323443780.90463662,0.01793902,0.00594186,-0.99982143
1323443780.95353198,0.01804848,0.00587186,-0.99981987
1323443781.00553393,0.01826432,0.00448735,-0.99982312
1323443781.05254412,0.01807235,0.00460580,-0.99982607
1323443781.10487390,0.01798331,0.00466232,-0.99982742
1323443781.15252948,0.01814375,0.00452030,-0.99982517
1323443781.20550799,0.01806262,0.00452876,-0.99982660
1323443781.25349975,0.01796254,0.00411206,-0.99983020
1323443781.30564737,0.01801264,0.00412754,-0.99982924
1323443781.35291982,0.01799938,0.00413290,-0.99982946
1323443781.40464997,0.01812888,0.00404401,-0.99982748
1323443781.45367408,0.01800824,0.00421689,-0.99982895
1323443781.50458026,0.01872637,0.00367945,-0.99981788
1323443781.55298209,0.01870798,0.00396751,-0.99981712
1323443781.60551238,0.01850402,0.00401597,-0.99982072
1323443781.65674496,0.01835001,0.00394505,-0.99982384
1323443781.70569181,0.01832444,0.00401379,-0.99982404
1323443781.75351214,0.01780237,0.00394007,-0.99983376
1323443781.80463290,0.01775843,0.00416459,-0.99983363
1323443781.85658765,0.01755649,0.00407761,-0.99983756
1323443781.90469313,0.01776133,0.00418581,-0.99983349
1323443781.95256305,0.01788605,0.00429815,-0.99983079
1323443782.00552487,0.01730993,0.00405845,-0.99984194
1323443782.05356359,0.01729200,0.00418852,-0.99984171
1323443782.10617042,0.01713335,0.00397955,-0.99984529
1323443782.15356708,0.01704250,0.00388438,-0.99984722
1323443782.20608830,0.01725484,0.00407787,-0.99984281
1323443782.25364256,0.01727469,0.00302032,-0.99984622
1323443782.31353736,0.01699633,0.00312532,-0.99985067
1323443782.35252213,0.01686729,0.00321973,-0.99985255
1323443782.40580106,0.01681249,0.00320643,-0.99985352
1323443782.45251322,0.01684146,0.00336740,-0.99985250
1323443782.50457573,0.01706744,0.00279899,-0.99985042
1323443782.55352044,0.01715743,0.00288795,-0.99984863
1323443782.60329318,0.01676633,0.00299328,-0.99985495
1323443782.65257525,0.01685861,0.00306959,-0.99985317
1323443782.70849013,0.01696915,0.00320829,-0.99985087
1323443782.75252891,0.01694980,0.00321568,-0.99985117
1323443782.80551124,0.01697953,0.00322302,-0.99985064
1323443782.85349512,0.01689090,0.00297053,-0.99985293
1323443782.90569973,0.01689509,0.00306448,-0.99985257
1323443782.95753098,0.01691965,0.00304597,-0.99985221
1323443783.00571132,0.01739391,0.00279813,-0.99984480
1323443783.05357313,0.01709699,0.00302132,-0.99984927
1323443783.10527325,0.01706256,0.00310915,-0.99984959
1323443783.15264177,0.01677249,0.00331341,-0.99985384
1323443783.20552444,0.01671761,0.00316845,-0.99985523
1323443783.25252700,0.01713428,0.00315375,-0.99984822
1323443783.30557108,0.01692105,0.00340483,-0.99985103
1323443783.35351157,0.01699915,0.00324220,-0.99985025
1323443783.40566969,0.01696542,0.00334248,-0.99985049
1323443783.45268297,0.01702565,0.00327491,-0.99984969
1323443783.50556111,0.01711376,0.00250257,-0.99985042
1323443783.55267453,0.01718352,0.00260661,-0.99984895
1323443783.60561085,0.01704532,0.00276226,-0.99985090
1323443783.65253091,0.01699027,0.00299521,-0.99985117
1323443783.70463419,0.01677837,0.00308622,-0.99985447
1323443783.75350571,0.01684404,0.00280916,-0.99985418
1323443783.80566669,0.01693202,0.00292994,-0.99985235
1323443783.85369229,0.01675741,0.00291299,-0.99985534
1323443783.90502310,0.01666582,0.00313346,-0.99985621
1323443783.95357919,0.01687337,0.00324121,-0.99985238
1323443784.00551391,0.01660302,0.00274800,-0.99985838
1323443784.05252981,0.01674634,0.00284635,-0.99985572
1323443784.10452962,0.01719155,0.00285450,-0.99984814
1323443784.15353918,0.01712011,0.00309186,-0.99984866
1323443784.20565510,0.01694940,0.00303043,-0.99985176
1323443784.25368953,0.01683468,0.00267732,-0.99985470
1323443784.30552506,0.01682633,0.00263653,-0.99985495
1323443784.35357332,0.01700080,0.00261200,-0.99985206
1323443784.40553164,0.01692226,0.00284354,-0.99985276
1323443784.46476698,0.01705086,0.00288701,-0.99985046
1323443784.50486732,0.01651453,0.00293417,-0.99985932
1323443784.55357265,0.01660506,0.00288620,-0.99985796
1323443784.60568905,0.01629958,0.00285291,-0.99986308
1323443784.65848589,0.01626469,0.00269554,-0.99986409
1323443784.70454049,0.01629021,0.00281620,-0.99986334
1323443784.75368547,0.01655156,0.00311813,-0.99985815
1323443784.80561686,0.01600961,0.00229502,-0.99986920
1323443784.85754943,0.01608435,0.00228660,-0.99986802
1323443784.90553665,0.01605718,0.00240428,-0.99986818
1323443784.95751643,0.01630196,0.00228225,-0.99986451
1323443785.00559521,0.01621534,0.00243398,-0.99986556
1323443785.05263615,0.01624785,0.00246467,-0.99986496
1323443785.10459900,0.01624685,0.00255266,-0.99986475
1323443785.15259814,0.01632313,0.00258807,-0.99986342
1323443785.20551133,0.01615695,0.00266926,-0.99986591
1323443785.25346422,0.01668356,0.00299036,-0.99985635
1323443785.30460238,0.01633596,0.00288626,-0.99986239
1323443785.35366011,0.01628101,0.00298824,-0.99986299
1323443785.40457869,0.01621067,0.00290951,-0.99986437
1323443785.45251322,0.01610721,0.00292817,-0.99986598
1323443785.50548339,0.01626283,0.00252663,-0.99986456
1323443785.55271626,0.01627263,0.00262137,-0.99986416
1323443785.60552955,0.01638278,0.00274479,-0.99986203
1323443785.66457319,0.01644734,0.00277677,-0.99986088
1323443785.70575786,0.01655223,0.00276993,-0.99985917
1323443785.75352955,0.01648380,0.00272777,-0.99986041
1323443785.80532169,0.01628041,0.00225912,-0.99986491
1323443785.85520935,0.01626804,0.00224348,-0.99986515
1323443785.90455008,0.01638669,0.00246708,-0.99986269
1323443785.95264983,0.01654331,0.00259316,-0.99985979
1323443786.00551176,0.01632123,0.00199580,-0.99986481
1323443786.05352783,0.01636438,0.00194646,-0.99986420
1323443786.10464144,0.01632716,0.00218764,-0.99986431
1323443786.15352440,0.01603768,0.00251416,-0.99986823
1323443786.20583916,0.01612904,0.00271055,-0.99986624
1323443786.25250316,0.01616767,0.00250183,-0.99986616
1323443786.30453944,0.01595515,0.00266352,-0.99986916
1323443786.35352159,0.01602448,0.00267799,-0.99986801
1323443786.40550137,0.01585947,0.00260808,-0.99987083
1323443786.45304632,0.01592976,0.00258725,-0.99986977
1323443786.50449467,0.01568939,0.00273176,-0.99987318
1323443786.55349922,0.01563936,0.00287987,-0.99987355
1323443786.60550189,0.01555482,0.00290372,-0.99987480
1323443786.65404963,0.01533764,0.00287619,-0.99987823
1323443786.70504475,0.01516110,0.00305145,-0.99988041
1323443786.75248671,0.01489273,0.00339492,-0.99988333
1323443786.80551004,0.01488309,0.00344219,-0.99988332
1323443786.85253358,0.01471222,0.00359730,-0.99988530
1323443786.90449858,0.01460591,0.00361506,-0.99988679
1323443786.95350528,0.01448844,0.00359383,-0.99988858
1323443787.00503016,0.01481126,0.00409514,-0.99988192
1323443787.05757737,0.01481770,0.00420769,-0.99988136
1323443787.10457611,0.01474922,0.00429983,-0.99988198
1323443787.15450573,0.01488142,0.00439079,-0.99987962
1323443787.20549631,0.01488129,0.00452694,-0.99987902
1323443787.25349998,0.01476819,0.00468394,-0.99987997
1323443787.30463958,0.01475093,0.00497652,-0.99987881
1323443787.35351253,0.01441929,0.00488201,-0.99988412
1323443787.40566373,0.01432870,0.00465839,-0.99988649
1323443787.45397425,0.01433120,0.00465007,-0.99988649
1323443787.50475836,0.01418973,0.00477382,-0.99988792
1323443787.55368900,0.01445732,0.00506079,-0.99988268
1323443787.60556865,0.01457682,0.00504385,-0.99988103
1323443787.65705585,0.01446323,0.00495284,-0.99988314
1323443787.70468783,0.01435257,0.00492962,-0.99988484
1323443787.75353694,0.01427269,0.00503641,-0.99988546
1323443787.80467296,0.01436554,0.00473426,-0.99988560
1323443787.85356832,0.01417914,0.00472359,-0.99988831
1323443787.90581822,0.01402619,0.00473258,-0.99989043
1323443787.95266747,0.01384144,0.00473302,-0.99989300
1323443788.00554109,0.01348875,0.00496943,-0.99989667
1323443788.06558442,0.01356278,0.00516844,-0.99989466
1323443788.10463619,0.01349674,0.00501000,-0.99989636
1323443788.15751648,0.01346518,0.00492379,-0.99989722
1323443788.20598340,0.01336975,0.00479136,-0.99989914
1323443788.25360990,0.01354901,0.00478587,-0.99989675
1323443788.30551434,0.01339099,0.00499347,-0.99989787
1323443788.35262704,0.01322416,0.00513147,-0.99989939
1323443788.40545821,0.01319188,0.00526333,-0.99989913
1323443788.45249987,0.01305435,0.00536046,-0.99990042
1323443788.50452352,0.01392866,0.00524599,-0.99988923
1323443788.55333781,0.01363086,0.00541569,-0.99989243
1323443788.60464883,0.01364643,0.00522747,-0.99989322
1323443788.65263677,0.01347300,0.00542960,-0.99989449
1323443788.70455050,0.01325538,0.00545681,-0.99989725
1323443788.75352430,0.01348948,0.00454878,-0.99989867
1323443788.80551648,0.01366987,0.00456983,-0.99989612
1323443788.85354495,0.01372530,0.00439080,-0.99989616
1323443788.90458512,0.01369224,0.00449501,-0.99989615
1323443788.95323491,0.01378654,0.00442622,-0.99989516
1323443789.00549984,0.01416166,0.00370544,-0.99989285
1323443789.05352831,0.01389911,0.00381387,-0.99989613
1323443789.10521507,0.01386509,0.00397064,-0.99989599
1323443789.15352893,0.01383122,0.00386933,-0.99989686
1323443789.20552850,0.01373211,0.00382532,-0.99989839
1323443789.25265360,0.01332913,0.00379930,-0.99990395
1323443789.30455589,0.01331233,0.00370268,-0.99990453
1323443789.35352039,0.01310437,0.00379447,-0.99990693
1323443789.40463352,0.01338552,0.00351117,-0.99990425
1323443789.45421028,0.01331229,0.00350028,-0.99990526
1323443789.50559282,0.01298588,0.00451489,-0.99990549
1323443789.55255437,0.01280579,0.00453377,-0.99990772
1323443789.60553932,0.01271577,0.00478890,-0.99990768
1323443789.65351534,0.01277718,0.00491807,-0.99990627
1323443789.70464516,0.01286428,0.00496874,-0.99990491
1323443789.75318742,0.01300340,0.00501385,-0.99990288
1323443789.80463934,0.01286589,0.00446069,-0.99990728
1323443789.85266447,0.01253334,0.00452693,-0.99991121
1323443789.90493131,0.01247180,0.00459269,-0.99991168
1323443789.95253158,0.01213907,0.00455895,-0.99991593
1323443790.00551081,0.01182580,0.00517661,-0.99991667
1323443790.05349565,0.01194559,0.00526382,-0.99991479
1323443790.10464835,0.01182208,0.00521680,-0.99991651
1323443790.15353298,0.01186025,0.00534108,-0.99991540
1323443790.20565963,0.01200512,0.00546374,-0.99991301
1323443790.25654936,0.01208142,0.00653755,-0.99990565
1323443790.30594492,0.01211651,0.00657303,-0.99990499
1323443790.35667539,0.01251105,0.00692861,-0.99989773
1323443790.40552163,0.01235121,0.00703370,-0.99989898
1323443790.45351982,0.01230272,0.00722488,-0.99989822
1323443790.50467062,0.01255075,0.00755102,-0.99989272
1323443790.55352807,0.01248333,0.00734054,-0.99989514
1323443790.60473013,0.01249615,0.00735857,-0.99989484
1323443790.65666175,0.01260562,0.00727468,-0.99989408
1323443790.70558238,0.01277540,0.00741403,-0.99989090
1323443790.75269628,0.01287334,0.00742484,-0.99988957
1323443790.80551672,0.01331855,0.00798467,-0.99987942
1323443790.85295725,0.01323572,0.00806297,-0.99987989
1323443790.90463662,0.01314002,0.00798604,-0.99988177
1323443790.95353580,0.01303187,0.00791386,-0.99988376
1323443791.00500631,0.01264253,0.00817083,-0.99988670
1323443791.05252862,0.01269652,0.00806483,-0.99988687
1323443791.10456276,0.01259992,0.00818655,-0.99988710
1323443791.15268493,0.01250797,0.00811633,-0.99988883
1323443791.20554566,0.01266329,0.00808941,-0.99988709
1323443791.25252438,0.01260031,0.00828858,-0.99988626
1323443791.30451632,0.01246021,0.00945663,-0.99987765
1323443791.35349989,0.01248372,0.00927639,-0.99987905
1323443791.40550089,0.01231424,0.00931220,-0.99988081
1323443791.45250154,0.01230299,0.00925450,-0.99988149
1323443791.50489950,0.01243028,0.00952339,-0.99987739
1323443791.55251956,0.01231533,0.00945046,-0.99987950
1323443791.60551190,0.01238210,0.00961408,-0.99987712
1323443791.65254331,0.01252181,0.00983036,-0.99987328
1323443791.70453882,0.01244911,0.00985924,-0.99987390
1323443791.75353169,0.01224170,0.01014360,-0.99987362
1323443791.80451632,0.01188580,0.00975754,-0.99988175
1323443791.85255623,0.01188378,0.00973327,-0.99988201
1323443791.90526342,0.01190303,0.00968386,-0.99988226
1323443791.95255208,0.01228853,0.00984027,-0.99987607
1323443792.00551391,0.01235783,0.01050045,-0.99986850
1323443792.05352330,0.01241032,0.01043860,-0.99986850
1323443792.10456538,0.01229809,0.01038080,-0.99987049
1323443792.15354037,0.01234818,0.01029073,-0.99987080
1323443792.20454574,0.01218936,0.01053595,-0.99987020
1323443792.25256801,0.01227433,0.01062423,-0.99986822
1323443792.30456018,0.01250046,0.01063083,-0.99986535
1323443792.35257006,0.01253085,0.01063954,-0.99986488
1323443792.40551138,0.01241428,0.01072910,-0.99986538
1323443792.45251703,0.01249772,0.01090183,-0.99986247
1323443792.50467157,0.01306575,0.01113680,-0.99985262
1323443792.55353451,0.01306048,0.01099110,-0.99985430
1323443792.60296106,0.01313318,0.01097900,-0.99985348
1323443792.65266228,0.01323606,0.01127435,-0.99984884
1323443792.70495391,0.01312855,0.01129103,-0.99985007
1323443792.75308561,0.01318039,0.01134328,-0.99984879
1323443792.80551863,0.01300882,0.01114138,-0.99985331
1323443792.85359716,0.01319763,0.01087854,-0.99985373
1323443792.90465450,0.01331024,0.01062141,-0.99985500
1323443792.95351100,0.01319085,0.01068380,-0.99985592
1323443793.00565243,0.01404596,0.01004852,-0.99985086
1323443793.05665278,0.01410432,0.01021566,-0.99984834
1323443793.10708022,0.01380907,0.01026407,-0.99985197
1323443793.15359187,0.01387392,0.01005764,-0.99985317
1323443793.20555186,0.01396474,0.01024684,-0.99984998
1323443793.25654149,0.01422087,0.00918299,-0.99985671
1323443793.30466247,0.01434077,0.00934123,-0.99985353
1323443793.35350037,0.01444078,0.00928279,-0.99985264
1323443793.40566206,0.01426917,0.00942510,-0.99985377
1323443793.45652342,0.01416866,0.00975012,-0.99985208
1323443793.50554371,0.01501104,0.00883671,-0.99984828
1323443793.55762482,0.01521035,0.00887128,-0.99984496
1323443793.60551047,0.01514278,0.00869609,-0.99984753
1323443793.65754867,0.01511654,0.00862359,-0.99984855
1323443793.70468521,0.01493570,0.00863650,-0.99985116
1323443793.75354767,0.01535862,0.00798758,-0.99985014
1323443793.80495906,0.01530067,0.00814164,-0.99984979
1323443793.85356188,0.01513197,0.00815825,-0.99985222
1323443793.90454173,0.01516917,0.00805637,-0.99985248
1323443793.95252442,0.01531255,0.00809844,-0.99984996
1323443794.00455332,0.01581433,0.00747920,-0.99984697
1323443794.05350828,0.01576659,0.00759696,-0.99984684
1323443794.10464358,0.01566662,0.00759468,-0.99984843
1323443794.15353394,0.01541941,0.00769570,-0.99985150
1323443794.20456266,0.01537886,0.00776126,-0.99985162
1323443794.25254607,0.01549508,0.00700252,-0.99985542
1323443794.30540371,0.01540623,0.00717046,-0.99985561
1323443794.35254145,0.01543746,0.00723073,-0.99985469
1323443794.40550280,0.01523524,0.00733181,-0.99985706
1323443794.45583749,0.01510508,0.00746104,-0.99985807
1323443794.50457311,0.01506022,0.00563600,-0.99987070
1323443794.55753398,0.01513006,0.00548576,-0.99987049
1323443794.60565162,0.01507755,0.00553443,-0.99987101
1323443794.65257287,0.01552898,0.00569052,-0.99986322
1323443794.70539093,0.01566589,0.00569687,-0.99986105
1323443794.75352716,0.01666455,0.00331333,-0.99985565
1323443794.80550575,0.01664422,0.00341143,-0.99985566
1323443794.85350990,0.01662812,0.00356752,-0.99985538
1323443794.90465188,0.01671147,0.00343941,-0.99985444
1323443794.95351839,0.01673983,0.00363063,-0.99985329
1323443795.00567007,0.01711171,0.00226030,-0.99985103
1323443795.05264449,0.01736181,0.00219106,-0.99984687
1323443795.10514235,0.01732452,0.00205764,-0.99984780
1323443795.15355802,0.01715088,0.00238525,-0.99985007
1323443795.20552278,0.01735624,0.00231804,-0.99984668
1323443795.25357318,0.01832395,0.00124177,-0.99983133
1323443795.30463982,0.01804607,0.00114319,-0.99983650
1323443795.35352778,0.01791786,0.00108205,-0.99983888
1323443795.40282369,0.01792465,0.00121458,-0.99983860
1323443795.45253348,0.01806423,0.00107925,-0.99983625
1323443795.50505424,0.01835937,0.00154253,-0.99983026
1323443795.55266237,0.01855280,0.00176723,-0.99982632
1323443795.60549474,0.01864364,0.00162696,-0.99982487
1323443795.65265322,0.01856612,0.00167450,-0.99982623
1323443795.70464945,0.01861015,0.00167880,-0.99982541
1323443795.75352883,0.01867783,0.00418542,-0.99981679
1323443795.80502582,0.01857777,0.00397384,-0.99981952
1323443795.85356212,0.01879500,0.00416921,-0.99981467
1323443795.90454721,0.01879309,0.00433606,-0.99981399
1323443795.95264816,0.01886868,0.00428139,-0.99981280
1323443796.00485182,0.01969375,0.00507033,-0.99979320
1323443796.05354953,0.01969716,0.00510259,-0.99979297
1323443796.10497451,0.01949443,0.00517593,-0.99979657
1323443796.15351152,0.01963652,0.00522313,-0.99979354
1323443796.20567799,0.01962016,0.00521428,-0.99979391
1323443796.25284529,0.01973380,0.00611350,-0.99978658
1323443796.30479455,0.01971375,0.00609265,-0.99978710
1323443796.35906982,0.01947897,0.00604335,-0.99979200
1323443796.40551877,0.01972786,0.00606144,-0.99978701
1323443796.45271420,0.01943996,0.00594708,-0.99979334
1323443796.50553179,0.01772788,0.00930263,-0.99979957
1323443796.55270934,0.01772266,0.00958214,-0.99979702
1323443796.60451150,0.01771094,0.00963486,-0.99979673
1323443796.65352869,0.01750768,0.00933345,-0.99980316
1323443796.70553541,0.01763163,0.00933182,-0.99980100
1323443796.75260735,0.01676797,0.01091223,-0.99979986
1323443796.80550933,0.01656779,0.01074562,-0.99980500
1323443796.85256243,0.01642462,0.01074896,-0.99980733
1323443796.90451217,0.01616826,0.01081331,-0.99981081
1323443796.95268297,0.01615803,0.01090893,-0.99980994
1323443797.00565815,0.01572661,0.01080976,-0.99981789
1323443797.05609417,0.01567557,0.01096237,-0.99981703
1323443797.10475969,0.01562708,0.01104812,-0.99981685
1323443797.15253925,0.01549231,0.01080908,-0.99982156
1323443797.20551229,0.01541979,0.01088737,-0.99982183
1323443797.25251627,0.01493715,0.01348237,-0.99979753
1323443797.30459690,0.01491080,0.01358899,-0.99979648
1323443797.35352421,0.01477711,0.01376042,-0.99979612
1323443797.40456939,0.01459576,0.01347998,-0.99980261
1323443797.45257807,0.01451776,0.01348716,-0.99980365
1323443797.50511241,0.01452538,0.01531987,-0.99977713
1323443797.55256367,0.01443644,0.01528998,-0.99977888
1323443797.60607862,0.01408786,0.01532653,-0.99978329
